Regional Weather Roundup
Issued by NWS

Home | Current Version | Previous Version | Graphics & Text | Print | Product List | Glossary On
Versions: 1 2 3 4 5 6 7 8 9 10 11 12 13 14 15 16 17 18 19 20 21 22 23 24 25 26 27 28 29 30 31 32 33 34 35 36 37 38 39 40 41 42 43 44 45 46 47 48 49 50
000
ASUS43 KDTX 261701
RWRMI
MICHIGAN HOURLY REGIONAL WEATHER ROUNDUP
NATIONAL WEATHER SERVICE DETROIT/PONTIAC MI
1200 PM EST MON JAN 26 2015

NOTE: "FAIR" INDICATES FEW OR NO CLOUDS BELOW 12,000 FEET WITH NO
SIGNIFICANT WEATHER AND/OR OBSTRUCTION TO VISIBILITY.

MIZ047>049-052>055-059>063-066>070-074>076-081>083-261800-
SOUTHEAST LOWER MICHIGAN

CITY           SKY/WX    TMP DP  RH WIND       PRES   REMARKS
ADRIAN         SUNNY     20   9  62 NE8       29.93F WCI  10
ALMA           SUNNY     17  10  73 E3        29.98S
ANN ARBOR      SUNNY     22   8  55 NE8       29.93F WCI  12
BAD AXE        FLURRIES  19  13  78 NE5       29.98S WCI  12
CARO           SUNNY     21  10  61 CALM      29.97F
DETROIT CITY   SUNNY     21   7  54 NE9       29.94F WCI  11
DETROIT        MOSUNNY   22   8  55 N7        29.94F WCI  13
FLINT          SUNNY     21  10  62 NE5       29.96F WCI  15
GROSSE ILE     SUNNY     19   9  63 NE8       29.93F WCI   9
HILLSDALE      SUNNY     19   8  61 CALM      29.90S
HOWELL         SUNNY     19  11  71 NE3       29.92F

CITY           SKY/WX    TMP DP  RH WIND       PRES   REMARKS
JACKSON        FAIR      20   7  57 VRB5      29.92F WCI  13
LAMBERTVILLE   SUNNY     21  12  68 NE5       29.93F WCI  15
LANSING        SUNNY     19   9  65 VRB3      29.95F
LAPEER         FAIR      19  11  70 NE7       29.95F WCI  10
MASON          SUNNY     18   9  69 E6        29.94F WCI   9
MONROE         SUNNY     19  10  68 N6        29.91F WCI  11
MT. CLEMENS    MOSUNNY   20  10  63 NE8       29.91F WCI  11
PONTIAC        MOSUNNY   20   9  62 E5        29.91F WCI  13
PORT HOPE        N/A     20  13  74 E9        29.98F WCI   9
PORT HURON     SUNNY     19  12  73 N8        29.95F WCI   9
TRI CITIES     SUNNY     20   8  60 E8        29.98F WCI  10
TROY           SUNNY     23   9  54 NE8       29.95F WCI  14
SAGINAW HB     SUNNY     21  12  68 E9        29.97F WCI  11
$$
MIZ043>046-050>051-056>058-064>065-071>073-077>080-261800-
SOUTHWEST LOWER MICHIGAN

CITY           SKY/WX    TMP DP  RH WIND       PRES   REMARKS
BATTLE CREEK   SUNNY     22   8  55 NE3       29.94F
BENTON HARBOR  MOSUNNY   19  11  70 VRB6      29.95F WCI  11
BIG RAPIDS     MOSUNNY   17  12  82 S3        29.93F
COLDWATER      SUNNY     18   8  62 CALM      29.93S
FREMONT        FAIR      16   8  70 SE6       29.95F WCI   7
HOLLAND        MOSUNNY   19  11  70 E7        29.96F WCI  10
GRAND RAPIDS   CLOUDY    18  10  71 E7        29.95F WCI   9
IONIA          FAIR      19  11  72 CALM      29.95F
KALAMAZOO      PTSUNNY   18   8  65 CALM      29.95S
LUDINGTON      MOSUNNY   20  10  65 S9        29.95F WCI   9
MARSHALL       SUNNY     18   7  61 CALM      29.93F
MOUNT PLEASANT SUNNY     19  10  69 E5        29.96F WCI  12
MUSKEGON       PTSUNNY   18   9  68 SE7       29.96F WCI   9
SOUTH HAVEN    PTSUNNY   21   9  61 SE5       29.95F WCI  14
$$
MIZ016>042-261800-
NORTHERN LOWER MICHIGAN

CITY           SKY/WX    TMP DP  RH WIND       PRES   REMARKS
ALPENA         CLOUDY    15  10  80 CALM      30.00F
BEAVER ISLAND  CLOUDY    17  10  74 CALM      29.97F
BELLAIRE       MOSUNNY   16   9  72 CALM      29.97F
CADILLAC       SUNNY     16  10  75 SE10      29.89F WCI   4
CHARLEVOIX     MOSUNNY   15   9  78 E5        29.99F WCI   7
FRANKFORT      PTSUNNY   19  11  72 S9        29.95F WCI   8
GAYLORD        MOSUNNY   15   8  73 SE9       29.92F WCI   3
GRAYLING       MOSUNNY   16   8  72 NE3       29.93F
HARBOR SPRINGS MOSUNNY   14   7  75 E6        29.97F WCI   5
HOUGHTON LAKE  MOSUNNY   17   9  70 SE8       29.93F WCI   7
MANISTEE       MOSUNNY   18   9  68 S7        29.95F WCI   8
OSCODA         MOSUNNY   21  10  60 E6        29.98F WCI  14
PELLSTON       MOSUNNY   13   7  77 SE3       29.99F
ROGERS CITY    PTSUNNY   20  14  79 S7        30.00F WCI  11
TRAVERSE CITY  CLOUDY    19  10  68 CALM      29.95F
$$
MIZ007>008-015-261800-
EASTERN UPPER MICHIGAN

CITY           SKY/WX    TMP DP  RH WIND       PRES   REMARKS
KINROSS        PTSUNNY   10   7  85 E8        30.00S WCI  -1
MACKINAC ISLAN MOSUNNY   18  13  79 SE5       29.98F WCI  11
NEWBERRY       CLOUDY    15   9  78 SE12G18   29.94F WCI   2
S. S. MARIE    LGT SNOW   8   1  73 E7        30.01F WCI  -3
MUNISING         N/A     20  13  74 S9        29.89F WCI   9
$$
MIZ004>006-011>014-085-261800-
CENTRAL UPPER MICHIGAN

CITY           SKY/WX    TMP DP  RH WIND       PRES   REMARKS
MANISTIQUE     CLOUDY    22  14  71 S14G20    29.93F WCI   9
ESCANABA       CLOUDY    18  12  79 CALM      29.89F
MENOMINEE      CLOUDY    19  12  73 SW6       29.90R WCI  11
SAWYER-GWINN   CLOUDY    16  14  93 S16       29.83R WCI   0
$$
MIZ001>003-009>011-084-261800-
WESTERN UPPER MICHIGAN

CITY           SKY/WX    TMP DP  RH WIND       PRES   REMARKS
IRON MOUNTAIN  LGT SNOW  14  10  84 SE7       29.83S VSB 1   WCI   4
HOUGHTON       LGT SNOW  17  12  80 S13       29.76F WCI   4
COPPER HARBOR    N/A     23  12  62 SW8       29.81S WCI  14
IRONWOOD       CLOUDY    19  16  86 SW6       29.68S WCI  11
$$

ABBREVIATIONS USED IN REMARKS
   TC - TEMPERATURE IN CELSIUS
  WCI - WIND CHILL INDEX
   HX - HEAT INDEX
  VSB - VISIBILITY



USA.gov is the U.S. government's official web portal to all federal, state and local government web resources and services.